{"data":{"norad_id":54192,"epoch":"2026-09-20T07:22:37.083360Z","epoch_age_seconds":105857,"freshness":"FRESH","line1":"1 54192U 22141AM  26263.30737365  .00000608  00000+0  29135-4 0  9991","line2":"2 54192  53.1614 190.3123 0001287  96.0096 264.1054 15.34386848215516","mean_motion":15.34386848,"eccentricity":0.0001287,"inclination_deg":53.1614,"raan_deg":190.3123,"arg_perigee_deg":96.0096,"mean_anomaly_deg":264.1054,"bstar":2.9135e-5,"rev_number":21551,"period_min":93.848562497585,"perigee_km":461.86190983208,"apogee_km":463.62275217188,"semimajor_km":6840.879331002,"source":"CELESTRAK","updated_at":"2026-09-21T09:00:33.095063Z"}}